Regional Weather Roundup
Issued by NWS Burlington, VT

Home | Current Version | Previous Version | Text Only | Print | Product List | Glossary On
Versions: 1 2 3 4 5 6 7 8 9 10 11 12 13 14 15 16 17 18 19 20 21 22 23 24 25 26 27 28 29 30 31 32 33 34 35 36 37 38 39 40 41 42 43 44 45 46 47 48 49 50
000
ASUS41 KBTV 280610
RWRBTV
VERMONT REGIONAL WEATHER ROUNDUP
NATIONAL WEATHER SERVICE BURLINGTON VT
200 AM EDT WED JUN 28 2017

NOTE: "FAIR" INDICATES FEW OR NO CLOUDS BELOW 12,000 FEET WITH NO
SIGNIFICANT WEATHER AND/OR OBSTRUCTIONS TO VISIBILITY.

* THESE REPORTS ARE NOT UNDER NWS QUALITY CONTROL AND/OR DO NOT
  REPORT WEATHER SUCH AS PRECIPITATION AND FOG.

VTZ001>019-280700-
_____VERMONT_____


CITY           SKY/WX    TMP DP  RH WIND       PRES   REMARKS
BURLINGTON     PTCLDY    55  52  89 S5        29.95S
6HR MIN TEMP:  55; 6HR MAX TEMP:  57; 6HR PCP: TRACE;

MONTPELIER     CLEAR     48  48 100 CALM      29.99F
6HR MIN TEMP:  48; 6HR MAX TEMP:  52; 6HR PCP: TRACE;

MORRISVILLE    CLOUDY    52  51  97 S5        29.97S
6HR MIN TEMP:  52; 6HR MAX TEMP:  54; 6HR PCP:  0.13;

ST. JOHNSBURY*   N/A     53  53 100 MISG      29.94S
6HR MIN TEMP:  52; 6HR MAX TEMP:  60; 6HR PCP:  0.20;

LYNDONVILLE*   RAIN      50  50  98 CALM      29.97S
6HR MIN TEMP:  50; 6HR MAX TEMP:  58;

MIDDLEBURY*    MOCLDY    52  51  97 CALM      29.96F
6HR MIN TEMP:  51; 6HR MAX TEMP:  56;

RUTLAND*       CLOUDY    50  48  93 SE9       29.98F
6HR MIN TEMP:  49; 6HR MAX TEMP:  58;

SPRINGFIELD    FOG       49  48  97 CALM      29.99S VSB 1/4
6HR MIN TEMP:  49; 6HR MAX TEMP:  55;

HIGHGATE*      MOCLDY    55  53  95 S5        29.93F
6HR MIN TEMP:  55; 6HR MAX TEMP:  57;

NEWPORT*       RAIN      52  51  97 S3        29.95S
6HR MIN TEMP:  52; 6HR MAX TEMP:  57;

BENNINGTON     CLOUDY    50  48  93 S5        30.00S
6HR MIN TEMP:  47; 6HR MAX TEMP:  58;

SUTTON*          N/A     48 N/A N/A MISG        N/A

_____LAKE CHAMPLAIN_____


CITY           SKY/WX    TMP DP  RH WIND       PRES   REMARKS
BURTON ISLAND*   N/A     59  55  88 S12         N/A
COLCHESTER RF*   N/A     59  57  94 S13         N/A

$$

NYZ007-026>031-035-052-083-087-280700-
_____NORTHERN NEW YORK_____


CITY           SKY/WX    TMP DP  RH WIND       PRES   REMARKS
PLATTSBURGH    CLOUDY    55  52  89 SW3       29.93F
6HR MIN TEMP:  54; 6HR MAX TEMP:  58; 6HR PCP:  0.03;

SARANAC LAKE   CLOUDY    52  52 100 SW8       29.95S
6HR MIN TEMP:  49; 6HR MAX TEMP:  54; 6HR PCP:  0.10;

MASSENA        MOCLDY    56  55  97 SW6       29.95S
6HR MIN TEMP:  57; 6HR MAX TEMP:  62; 6HR PCP:  0.02;

OGDENSBURG*    FAIR      55  54  95 SW5       29.96S
6HR MIN TEMP:  55; 6HR MAX TEMP:  61;

POTSDAM*       MOCLDY    55  55 100 SW6       29.96S
WATERTOWN      MOCLDY    59  56  89 W7        29.99S
6HR MIN TEMP:  58; 6HR MAX TEMP:  62;

FT DRUM        MOCLDY    56  54  92 W6        29.99R
6HR MIN TEMP:  56; 6HR MAX TEMP:  59;

ALBANY         MOCLDY    54  51  90 SW3       30.01R
6HR MIN TEMP:  53; 6HR MAX TEMP:  62;

GLENS FALLS    PTCLDY    50  49  96 S5        29.98S
6HR MIN TEMP:  47; 6HR MAX TEMP:  58;


$$
NHZ002-005-011-280700-
_____NEW HAMPSHIRE_____


CITY           SKY/WX    TMP DP  RH WIND       PRES   REMARKS
LEBANON        CLEAR     49  47  93 CALM      29.96F
6HR MIN TEMP:  47; 6HR MAX TEMP:  61;

KEENE          FOG       48  48 100 CALM      30.01S VSB 1/4
6HR MIN TEMP:  48; 6HR MAX TEMP:  60;

MT WASHINGTON  FOG       36  36 100 W28         N/A  VSB 0   WCI  23
6HR MIN TEMP:  34; 6HR MAX TEMP:  41; 6HR PCP:  0.09;

PLYMOUTH       FAIR      50  49  95 W5        29.96S
6HR MIN TEMP:  49; 6HR MAX TEMP:  62; 6HR PCP:  0.01;

WHITEFIELD     CLOUDY    51  48  89 CALM      29.95F
6HR MIN TEMP:  49; 6HR MAX TEMP:  60; 6HR PCP:  0.04;


$$

_____REGIONAL QUEBEC LOCATIONS_____


CITY           SKY/WX    TMP DP  RH WIND       PRES   REMARKS
MONTREAL       PTCLDY    57  54  88 SW7       29.91F
QUEBEC CITY    MOCLDY    52  50  93 CALM      29.89F
SHERBROOKE     CLOUDY    54  54 100 SW6       29.92S

_____REGIONAL ONTARIO LOCATIONS_____


CITY           SKY/WX    TMP DP  RH WIND       PRES   REMARKS
OTTAWA         MOCLDY    54  54 100 W6        29.95R

______KEY______
VSB  - VISIBILITY IN MILES
WCI  - WIND CHILL INDEX
HX   - HEAT INDEX
$$
NNNN




USA.gov is the U.S. government's official web portal to all federal, state and local government web resources and services.